Home > Weather > Port Elizabeth > Past weeks

Flag for South Africa Weather for the Past 2 Weeks in Port Elizabeth, South Africa

Now
61 °F

Passing clouds.


Feels Like: 61 °F
Forecast: 65 / 81 °F
Wind: 2 mph from West

Location: Port Elizabeth Airport

Current Time: Feb 9, 2016 at 6:15:15 AM

Latest Report: Feb 9, 2016 at 5:00 AM


Visibility: N/A

Pressure: 30.12 "Hg

Humidity: 94%

Dew point: 59 °F

Location of Port ElizabethLocation

Historic Weather in Port Elizabeth — Graph

°F

Port Elizabeth Temperature Yesterday

Maximum temperature yesterday: 81 °F (at 3:00 PM)
Minimum temperature yesterday: 66 °F (at 12:00 AM)
Average temperature yesterday: 70 °F

High & Low Weather Summary for the Past Weeks

 TemperatureHumidityPressure
High86 °F (Jan 31, 1:00 PM)94% (Jan 25, 1:00 PM)30.18 "Hg (Jan 25, 1:00 PM)
Low55 °F (Feb 5, 5:00 AM)47% (Jan 27, 2:00 PM)29.65 "Hg (Feb 1, 4:00 PM)
Average71 °F77%29.99 "Hg
* Reported Jan 25 5:00 AM — Feb 9 5:00 AM, Port Elizabeth, Weather by CustomWeather, © 2016

Note: Actual official high and low records may vary slightly from our data, if they occured in-between our weather recording intervals... More about our weather records

Advertising

Port Elizabeth Weather History for the Previous 24 Hours

 ConditionsComfort  
Time TempWeatherWind HumidityBarometerVisibility
5:00 AM
Tue, Feb 9
61 °FPassing clouds.2 mph94%30.12 "HgN/A
4:00 AM61 °FPassing clouds.3 mph94%30.12 "HgN/A
3:00 AM63 °FClear.2 mph94%30.12 "Hg10 mi
2:00 AM64 °FPartly cloudy.No wind88%30.15 "HgN/A
1:00 AM63 °FPassing clouds.No wind94%30.15 "HgN/A
12:00 AM66 °FPassing clouds.2 mph83%30.15 "HgN/A
11:00 PM
Mon, Feb 8
66 °FPassing clouds.No wind88%30.18 "HgN/A
10:00 PM66 °FPassing clouds.2 mph83%30.18 "HgN/A
9:00 PM68 °FPassing clouds.2 mph78%30.18 "HgN/A
8:00 PM68 °FClear.3 mph83%30.15 "Hg10 mi
7:00 PM72 °FClear.7 mph69%30.15 "Hg10 mi
6:00 PM75 °FPassing clouds.10 mph61%30.12 "HgN/A
5:00 PM77 °FPassing clouds.14 mph57%30.12 "HgN/A
4:00 PM75 °FPassing clouds.12 mph65%30.12 "HgN/A
3:00 PM81 °FPassing clouds.13 mph51%30.12 "HgN/A
2:00 PM77 °FPassing clouds.13 mph57%30.15 "HgN/A
1:00 PM77 °FPartly sunny.13 mph61%30.15 "HgN/A
12:00 PM75 °FBroken clouds.12 mph65%30.15 "HgN/A
11:00 AM73 °FPartly sunny.9 mph74%30.15 "HgN/A
10:00 AM72 °FPartly sunny.6 mph78%30.18 "HgN/A
9:00 AM70 °FPartly sunny.5 mph88%30.15 "HgN/A
8:00 AM66 °FPartly sunny.7 mph94%30.15 "Hg4 mi
7:58 AM68 °FPartly sunny.7 mph88%30.15 "Hg4 mi
7:00 AM68 °FPartly sunny.6 mph88%30.15 "Hg5 mi
6:00 AM66 °FLight rain. Partly sunny.6 mph94%30.12 "HgN/A
Weather by CustomWeather, © 2016

See weather overviewHow to use our weather pages